Regional Weather Roundup
Issued by NWS

Home | Current Version | Previous Version | Graphics & Text | Print | Product List | Glossary On
Versions: 1 2 3 4 5 6 7 8 9 10 11 12 13 14 15 16 17 18 19 20 21 22 23 24 25 26 27 28 29 30 31 32 33 34 35 36 37 38 39 40 41 42 43 44 45 46 47 48 49 50
000
ASUS43 KIND 051309
RWRIN

WEATHER ROUNDUP FOR INDIANA
NATIONAL WEATHER SERVICE INDIANAPOLIS IN
900 AM EDT SUN JUL 05 2015

NOTE: "FAIR" INDICATES FEW OR NO CLOUDS BELOW 12,000 FEET WITH NO
SIGNIFICANT WEATHER AND/OR OBSTRUCTIONS TO VISIBILITY.

* - STATION DOES NOT REPORT WEATHER SUCH AS PRECIPITATION OR FOG.

+ - STATION NOT QUALITY CONTROLLED BY THE NATIONAL WEATHER SERVICE.
    USE DATA WITH CAUTION...ESPECIALLY DEWPOINT AND RELATIVE
    HUMIDITY OBSERVATIONS.

INZ001>003-010>013-019-020-051400-
NORTHWEST INDIANA

CITY           SKY/WX    TMP DP  RH WIND       PRES   REMARKS
GARY /AIRPORT/ SUNNY    N/A N/A N/A CALM      30.10S HAZE
MICHIGAN CITY+ SUNNY     70  64  83 CALM      30.11R
RENSSELAER +   SUNNY     68  64  88 CALM      30.11S

$$

LMZ046-743>745-051400-
SOUTHERN LAKE MICHIGAN

STATION/POSITION TIME  TEMP    WIND        PRES    WAVE
                       AIR SEA DIR/SP/G            HT
                 (UTC) (F)     (DEG/KT/KT) (MB)    (FT)
BURNS HARBOR     1300   69     190/  6/  9 1019.6S
MICHIGAN CITY    1300   70     160/  5/  8   N/A
5NW MICH CITY    1300   66 64  240/  2/  2   N/A     0

$$

INZ004-005-014>016-021>024-051400-
NORTH CENTRAL INDIANA

CITY           SKY/WX    TMP DP  RH WIND       PRES   REMARKS
ELKHART        SUNNY     66  63  88 CALM      30.12S SMOKE
GOSHEN         SUNNY     67  63  87 S3        30.12R FOG
ROCHESTER +    SUNNY     70  64  83 CALM      30.12R
SOUTH BEND     SUNNY     69  62  78 CALM      30.12R HAZE

$$

INZ006>009-017-018-025>027-051400-
NORTHEAST INDIANA

CITY           SKY/WX    TMP DP  RH WIND       PRES   REMARKS
ANGOLA *+        N/A     66  59  77 CALM      30.12R
FORT WAYNE     PTSUNNY   67  60  78 CALM      30.13R HAZE
HUNTINGTON +   MOSUNNY   65  62  87 CALM      30.12R

$$

INZ028-029-035-036-043>045-051>053-051400-
WEST CENTRAL INDIANA

CITY           SKY/WX    TMP DP  RH WIND       PRES   REMARKS
CRAWFORDSVL +  MOSUNNY   65  59  80 CALM      30.11R
GREENCASTLE +  PTSUNNY   66  59  77 CALM      30.11R HAZE
LAFAYETTE      SUNNY     67  63  87 CALM      30.10R FOG
TERRE HAUTE    MOSUNNY   68  64  87 CALM      30.09S FOG

$$

INZ030>032-037>040-046>048-054>057-064-065-051400-
CENTRAL INDIANA

CITY           SKY/WX    TMP DP  RH WIND       PRES   REMARKS
CP ATTERBURY + PTSUNNY   66  63  88 CALM      30.11S FOG
FISHERS *+     PTSUNNY   68  64  88 CALM      30.11S
GREENWOOD *+   PTSUNNY   70  59  68 E3        30.11
INDIANAPOLIS   PTSUNNY   70  60  70 CALM      30.09S HAZE
-EAGLE CREEK   PTSUNNY   69  61  75 CALM      30.10S HAZE
KOKOMO *+      MOSUNNY   64  61  88 CALM      30.11S
MARION +       MOSUNNY   65  61  88 CALM      30.13R HAZE
MT COMFORT *+  PTSUNNY   68 N/A N/A CALM      30.11R
SHELBYVILLE    PTSUNNY   70  63  78 E3        30.09S
ZIONSVILLE +   PTSUNNY   66  62  84 CALM      30.11S FOG

$$

INZ033-034-041-042-049-050-058-059-051400-
EAST CENTRAL INDIANA

CITY           SKY/WX    TMP DP  RH WIND       PRES   REMARKS
MUNCIE         PTSUNNY   70  60  70 SE3       30.11F

$$

INZ060-061-067>069-081>083-085>088-051400-
SOUTHWEST INDIANA

CITY           SKY/WX    TMP DP  RH WIND       PRES   REMARKS
EVANSVILLE     PTSUNNY   72  68  87 CALM      30.07S FOG
HUNTINGBURG *+ PTSUNNY   72  68  88 E5        30.07S
WASHINGTON +   PTSUNNY   71  66  85 CALM      30.07S

$$

INZ062-063-066-070>080-084-089>092-051400-
SOUTH CENTRAL AND SOUTHEAST INDIANA

CITY           SKY/WX    TMP DP  RH WIND       PRES   REMARKS
BLOOMINGTON    PTSUNNY   71  64  78 CALM      30.09F
MADISON *+     CLOUDY    70  63  78 E3        30.11S
NORTH VERNON + PTSUNNY   70  70 100 CALM      30.10S FOG
SEYMOUR +      PTSUNNY   70  64  83 CALM      30.08F HAZE

$$



USA.gov is the U.S. government's official web portal to all federal, state and local government web resources and services.